FW5790 Weather Reports


Display with metric or nautical units.
time (UTC)temp
F
wind
direction
speed
MPH
gust
MPH
rain 1hr
in
rain 24hr
in
rain mn
in
humidity
%
barometer
mb
20260904204605 92 0 0.0 1.0 0.00 0.00 0.00 68 1015.1
20260904203059 92 190 0.0 2.0 0.00 0.00 0.00 62 1015.5
20260904201611 93 0 0.0 1.0 0.00 0.00 0.00 61 1015.8
20260904200058 93 0 0.0 1.0 0.00 0.00 0.00 60 1015.8
20260904194600 94 129 0.0 0.0 0.00 0.00 0.00 59 1016.0
20260904193057 95 0 0.0 1.0 0.00 0.00 0.00 59 1016.3
20260904191554 95 0 0.0 1.0 0.00 0.00 0.00 59 1016.5
20260904190056 94 0 0.0 2.0 0.00 0.00 0.00 60 1016.7
20260904184601 94 0 0.0 0.0 0.00 0.00 0.00 63 1017.0
20260904183114 96 184 0.0 1.0 0.00 0.00 0.00 58 1017.1
20260904181552 97 245 0.0 3.0 0.00 0.00 0.00 58 1017.1
20260904180056 96 131 1.0 2.0 0.00 0.00 0.00 57 1017.2
20260904174552 95 0 0.0 4.0 0.00 0.00 0.00 59 1017.6
20260904173102 95 192 0.0 2.0 0.00 0.00 0.00 60 1017.6
20260904171610 96 148 0.0 1.0 0.00 0.00 0.00 59 1017.7
20260904170108 95 0 0.0 1.0 0.00 0.00 0.00 60 1017.7
20260904164600 95 0 0.0 2.0 0.00 0.00 0.00 61 1017.8
20260904163057 94 0 0.0 1.0 0.00 0.00 0.00 64 1017.8
20260904161557 94 161 0.0 2.0 0.00 0.00 0.00 64 1018.0
20260904160051 93 0 0.0 1.0 0.00 0.00 0.00 65 1017.9
20260904154551 92 132 0.0 1.0 0.00 0.00 0.00 69 1017.9
20260904153109 92 136 0.0 1.0 0.00 0.00 0.00 72 1017.9
20260904151553 91 0 0.0 0.0 0.00 0.00 0.00 71 1017.8
20260904150058 91 0 0.0 0.0 0.00 0.00 0.00 71 1017.7
20260904144602 90 0 0.0 0.0 0.00 0.00 0.00 73 1017.8
20260904143056 89 0 0.0 0.0 0.00 0.00 0.00 75 1017.9
20260904141552 88 0 0.0 0.0 0.00 0.00 0.00 76 1017.7
20260904140103 87 0 0.0 0.0 0.00 0.00 0.00 78 1017.7
20260904134601 86 0 0.0 0.0 0.00 0.00 0.00 76 1017.6
20260904133054 85 0 0.0 0.0 0.00 0.00 0.00 78 1017.6
20260904131600 85 0 0.0 0.0 0.00 0.00 0.00 80 1017.6
20260904124551 83 0 0.0 0.0 0.00 0.00 0.00 84 1017.5
20260904123101 80 0 0.0 0.0 0.00 0.00 0.00 86 1017.5
20260904121555 78 0 0.0 0.0 0.00 0.00 0.00 88 1017.3
20260904120053 75 0 0.0 0.0 0.00 0.00 0.00 91 1017.2
20260904114551 74 0 0.0 0.0 0.00 0.00 0.00 91 1017.0
20260904113051 74 0 0.0 0.0 0.00 0.00 0.00 91 1016.8
20260904111555 73 0 0.0 0.0 0.00 0.00 0.00 91 1016.8
20260904110051 74 0 0.0 0.0 0.00 0.00 0.00 91 1016.8
20260904104557 74 0 0.0 0.0 0.00 0.00 0.00 91 1016.7
20260904103101 74 0 0.0 0.0 0.00 0.00 0.00 91 1016.6
20260904101601 74 0 0.0 0.0 0.00 0.00 0.00 91 1016.6
20260904100105 74 0 0.0 0.0 0.00 0.00 0.00 91 1016.5
20260904094604 74 0 0.0 0.0 0.00 0.00 0.00 91 1016.4
20260904093108 74 0 0.0 0.0 0.00 0.00 0.00 91 1016.5
20260904091608 74 0 0.0 0.0 0.00 0.00 0.00 91 1016.4
20260904090056 74 0 0.0 0.0 0.00 0.00 0.00 91 1016.5
20260904084553 74 0 0.0 0.0 0.00 0.00 0.00 90 1016.4
20260904083103 74 0 0.0 0.0 0.00 0.00 0.00 90 1016.6
20260904081554 74 0 0.0 0.0 0.00 0.00 0.00 90 1016.5
20260904080051 74 0 0.0 0.0 0.00 0.00 0.00 90 1016.4
20260904074559 75 0 0.0 0.0 0.00 0.00 0.00 90 1016.3
20260904073109 75 0 0.0 0.0 0.00 0.00 0.00 90 1016.3
20260904071554 75 0 0.0 0.0 0.00 0.00 0.00 89 1016.4
20260904070054 76 0 0.0 0.0 0.00 0.00 0.00 89 1016.3
20260904064604 76 0 0.0 0.0 0.00 0.00 0.00 89 1016.6
20260904063105 76 0 0.0 0.0 0.00 0.00 0.00 89 1016.4
20260904061552 76 0 0.0 0.0 0.00 0.00 0.00 88 1016.6
20260904060104 77 0 0.0 0.0 0.00 0.00 0.00 88 1016.9
20260904054608 76 0 0.0 0.0 0.00 0.00 0.00 88 1016.9
20260904053058 76 0 0.0 0.0 0.00 0.00 0.00 88 1016.8
20260904051554 77 0 0.0 0.0 0.00 0.00 0.00 88 1016.9
20260904050053 77 0 0.0 0.0 0.00 0.00 0.00 87 1017.0
20260904044600 77 0 0.0 0.0 0.00 0.00 0.00 87 1017.0
20260904043100 77 0 0.0 0.0 0.00 0.00 0.00 87 1016.7
20260904041601 77 0 0.0 0.0 0.00 0.00 0.00 88 1016.7
20260904040106 77 0 0.0 0.0 0.00 0.00 0.00 88 1016.7
20260904034601 77 0 0.0 0.0 0.00 0.00 0.00 87 1016.8
20260904033057 78 0 0.0 0.0 0.00 0.00 0.00 86 1017.0
20260904031558 79 0 0.0 0.0 0.00 0.00 0.00 85 1017.1
20260904024601 79 0 0.0 0.0 0.00 0.00 0.00 85 1017.1
20260904023054 79 0 0.0 0.0 0.00 0.00 0.00 84 1017.1
20260904021553 79 0 0.0 0.0 0.00 0.00 0.00 83 1017.2
20260904020059 80 0 0.0 0.0 0.00 0.00 0.00 82 1017.2
20260904014620 80 0 0.0 0.0 0.00 0.00 0.00 83 1017.2
20260904013111 80 0 0.0 0.0 0.00 0.00 0.00 82 1017.0
20260904011553 81 0 0.0 0.0 0.00 0.00 0.00 81 1016.8
20260904010105 81 0 0.0 0.0 0.00 0.00 0.00 80 1016.7
20260904004611 82 0 0.0 0.0 0.00 0.00 0.00 78 1016.3
20260904003104 83 0 0.0 0.0 0.00 0.00 0.00 75 1016.2
20260904001553 83 0 0.0 0.0 0.00 0.00 0.00 72 1016.2
20260904000051 84 0 0.0 0.0 0.00 0.00 0.00 72 1016.0
20260903234600 85 0 0.0 0.0 0.00 0.00 0.00 72 1015.8
20260903233100 86 0 0.0 0.0 0.00 0.00 0.00 71 1015.9
20260903231552 87 0 0.0 0.0 0.00 0.00 0.00 69 1015.7
20260903230100 87 0 0.0 0.0 0.00 0.00 0.00 67 1015.8
20260903224557 88 0 0.0 0.0 0.00 0.00 0.00 66 1015.7
20260903223107 89 0 0.0 0.0 0.00 0.00 0.00 70 1015.7
20260903221552 90 0 0.0 0.0 0.00 0.00 0.00 67 1015.8
20260903220051 90 0 0.0 0.0 0.00 0.00 0.00 66 1015.8
20260903214559 90 0 0.0 1.0 0.00 0.00 0.00 65 1015.8
20260903213055 90 0 0.0 0.0 0.00 0.00 0.00 67 1015.8
20260903211606 90 0 0.0 0.0 0.00 0.00 0.00 62 1016.0
20260903210051 90 0 0.0 1.0 0.00 0.00 0.00 66 1016.0